This is the latest recevied weather packets stored in our database for station/object SP3SWJ-13. If no packets are shown the sender has not sent any weather packets the latest 10 day(s).
| Time | Temp. | Humidity | Pressure | Rain* | Wind** | Luminosity | Snow |
|---|---|---|---|---|---|---|---|
| 1777962260 | 16.11° C | 73% | 1001.1 hPa | - | - | 158 W/m² | - |
| 1777961960 | 15.56° C | 74% | 1001 hPa | - | - | 234 W/m² | - |
| 1777961659 | 15° C | 76% | 1001 hPa | - | - | 134 W/m² | - |
| 1777961358 | 15° C | 76% | 1001.1 hPa | - | - | 126 W/m² | - |
| 1777961057 | 15° C | 77% | 1001.1 hPa | - | - | 113 W/m² | - |
| 1777960754 | 14.44° C | 77% | 1001.1 hPa | - | - | 83 W/m² | - |
| 1777960453 | 14.44° C | 77% | 1001.1 hPa | - | - | 62 W/m² | - |
| 1777960152 | 14.44° C | 77% | 1001.1 hPa | - | - | 60 W/m² | - |
| 1777959851 | 14.44° C | 77% | 1001.1 hPa | - | - | 60 W/m² | - |
| 1777959550 | 14.44° C | 78% | 1001 hPa | - | - | 55 W/m² | - |
| 1777959249 | 14.44° C | 77% | 1001 hPa | - | - | 56 W/m² | - |
| 1777958948 | 14.44° C | 78% | 1001 hPa | - | - | 57 W/m² | - |
| 1777958648 | 14.44° C | 78% | 1001.2 hPa | - | - | 56 W/m² | - |
| 1777958347 | 13.89° C | 79% | 1001.2 hPa | - | - | 57 W/m² | - |
| 1777958046 | 14.44° C | 80% | 1001.2 hPa | - | - | 56 W/m² | - |
| 1777957745 | 13.89° C | 80% | 1001.3 hPa | - | - | 64 W/m² | - |
| 1777957444 | 13.89° C | 80% | 1001.3 hPa | - | - | 76 W/m² | - |
| 1777957143 | 13.89° C | 80% | 1001.3 hPa | - | - | 71 W/m² | - |
| 1777956842 | 13.33° C | 81% | 1001.3 hPa | - | - | 58 W/m² | - |
| 1777956541 | 13.33° C | 82% | 1001.3 hPa | - | - | 48 W/m² | - |
| 1777956240 | 13.33° C | 82% | 1001.2 hPa | - | - | 43 W/m² | - |
| 1777955940 | 13.33° C | 81% | 1001.2 hPa | - | - | 37 W/m² | - |
| 1777955639 | 13.33° C | 81% | 1001.3 hPa | - | - | 32 W/m² | - |
| 1777955337 | 13.33° C | 82% | 1001.4 hPa | - | - | 26 W/m² | - |
| 1777955036 | 12.78° C | 82% | 1001.4 hPa | - | - | 19 W/m² | - |
* Rain since midnight (hover to see other rain measurements)
** Current wind speed in m/s (hover to see current wind gust speed)